1331424029527,18.3632
1331424089527,18.3690
1331424149527,18.3947
1331424209527,18.3457
1331424269527,18.3899
1331424329527,18.3924
1331424389527,18.4212
1331424449527,18.4015
1331424509527,18.4405
1331424569527,18.4755
1331424629527,18.4242
1331424689527,18.4435
1331424749527,18.4552
1331424809527,18.4672
1331424869527,18.3898
1331424929527,18.4186
1331424989527,18.4162
1331425049527,18.4596
1331425109527,18.3906
1331425169527,18.4590
1331425229527,18.3829
1331425289527,18.3719
1331425349527,18.4117
1331425409527,18.3935
1331425469527,18.3966
1331425529527,18.3866
1331425589527,18.3560
1331425649527,18.3211
1331425709527,18.3291
1331425769527,18.3183
1331425829527,18.3079
1331425889527,18.3090
1331425949527,18.3910
1331426009527,18.4165
1331426069527,18.3389
1331426129527,18.3539
1331426189527,18.3790
1331426249527,18.3003
1331426309527,18.3536
1331426369527,18.3195
1331426429527,18.3191
1331426489527,18.3438
1331426549527,18.3600
1331426609527,18.3941
1331426669527,18.4241
1331426729527,18.3812
1331426789527,18.3840
1331426849527,18.3660
1331426909527,18.3635
1331426969527,18.3699
1331427029527,18.3505
1331427089527,18.3808
1331427149527,18.4078
1331427209527,18.3826
1331427269527,18.3334
1331427329527,18.3883
1331427389527,18.4141
1331427449527,18.4005
1331427509527,18.3334
1331427569527,18.3569
1331427629541,18.3276
1331427689541,18.3778
1331427749541,18.3600
1331427809541,18.3741
1331427869541,18.4087
1331427929541,18.3914
1331427989541,18.4436
1331428049541,18.4820
1331428109541,18.4761
1331428169541,18.5062
1331428229541,18.4532
1331428289541,18.4717
1331428349541,18.5259
1331428409541,18.4522
1331428469541,18.4623
1331428529541,18.4848
1331428589541,18.4695
1331428649541,18.4416
1331428709541,18.4262
1331428769541,18.4093
1331428829541,18.4384
1331428889541,18.3971
1331428949541,18.4166
1331429009541,18.5096
1331429069541,18.5665
1331429129541,18.4781
1331429189541,18.3922
1331429249541,18.4066
1331429309541,18.3606
1331429369541,18.4243
1331429429541,18.3992
1331429489541,18.4081
1331429549541,18.3704
1331429609541,18.3424
1331429669541,18.3929
1331429729541,18.4159
1331429789541,18.4120
1331429849541,18.3777
1331429909541,18.3823
1331429969541,18.4252
1331430029541,18.3975
1331430089541,18.3861
1331430149541,18.4419
1331430209541,18.3975
1331430269541,18.4126
1331430329541,18.4353
1331430389541,18.4325
1331430449541,18.3853
1331430509541,18.4568
1331430569541,18.4103
1331430629541,18.4267
1331430689541,18.4348
1331430749541,18.4649
1331430809541,18.4465
1331430869541,18.4770
1331430929541,18.4953
1331430989541,18.4454
1331431049541,18.4993
1331431109541,18.4714
1331431169541,18.5106
1331431229554,18.5189
1331431289554,18.6042
1331431349554,18.4855
1331431409554,18.4765
1331431469554,18.4538
1331431529554,18.5012
1331431589554,18.4644
1331431649554,18.5172
1331431709554,18.4743
1331431769554,18.4210
1331431829554,18.4294
1331431889554,18.3362
1331431949554,18.4045
1331432009554,18.3733
1331432069554,18.4641
1331432129554,18.4287
1331432189554,18.4394
1331432249554,18.4473
1331432309554,18.4504
1331432369554,18.4510
1331432429554,18.4461
1331432489554,18.4480
1331432549554,18.4038
1331432609554,18.4138
1331432669554,18.4452
1331432729554,18.4210
1331432789554,18.3908
1331432849554,18.3552
1331432909554,18.3583
1331432969554,18.4240
1331433029554,18.3571
1331433089554,18.4086
1331433149554,18.3805
1331433209554,18.4819
1331433269554,18.3837
1331433329554,18.4553
1331433389554,18.4035
1331433449554,18.3587
1331433509554,18.3891
1331433569554,18.3939
1331433629554,18.3915
1331433689554,18.3900
1331433749554,18.4234
1331433809554,18.3795
1331433869554,18.3538
1331433929554,18.4631
1331433989554,18.4470
1331434049554,18.4317
1331434109554,18.4485
1331434169554,18.4976
1331434229554,18.4877
1331434289554,18.5057
1331434349554,18.5021
1331434409554,18.4751
1331434469554,18.5339
1331434529554,18.5407
1331434589554,18.5582
1331434649554,18.5435
1331434709554,18.6155
1331434769554,18.5920
1331434829567,18.6478
1331434889567,18.6681
1331434949567,18.6144
1331435009567,18.7265
1331435069567,18.7092
1331435129567,18.7177
1331435189567,18.6795
1331435249567,18.6266
1331435309567,18.6421
1331435369567,18.5617
1331435429567,18.5692
1331435489567,18.5499
1331435549567,18.5294
1331435609567,18.5195
1331435669567,18.5601
1331435729567,18.5382
1331435789567,18.5302
1331435849567,18.4886
1331435909567,18.5612
1331435969567,18.5793
1331436029567,18.5149
1331436089567,18.6770
1331436149567,18.4759
1331436209567,18.5251
1331436269567,18.5383
1331436329567,18.5137
1331436389567,18.5672
1331436449567,18.5584
1331436509567,18.5106
1331436569567,18.5027
1331436629567,18.4758
1331436689567,18.5108
1331436749567,18.5463
1331436809567,18.5372
1331436869567,18.5200
1331436929567,18.5543
1331436989567,18.5461
1331437049567,18.5340
1331437109567,18.5101
1331437169567,18.4747
1331437229567,18.4974
1331437289567,18.5613
1331437349567,18.5381
1331437409567,18.5957
1331437469567,18.5475
1331437529567,18.5463
1331437589567,18.5416
1331437649567,18.5569
1331437709567,18.5073
1331437769567,18.5000
1331437829567,18.4843
1331437889567,18.4623
1331437949567,18.4424
1331438009567,18.4730
1331438069567,18.4595
1331438129567,18.4073
1331438189567,18.4688
1331438249567,18.4360
1331438309567,18.4811
1331438369567,18.5056
1331438429581,18.4271
1331438489581,18.4857
1331438549581,18.4260
1331438609581,18.5127
1331438669581,18.4876
1331438729581,18.4454
1331438789581,18.4255
1331438849581,18.4754
1331438909581,18.4469
1331438969581,18.5181
1331439029581,18.4891
1331439089581,18.4675
1331439149581,18.4923
1331439209581,18.4488
1331439269581,18.4213
1331439329581,18.4711
1331439389581,18.4413
1331439449581,18.4587
1331439509581,18.4556
1331439569581,18.4289
1331439629581,18.5102
1331439689581,18.4186
1331439749581,18.4496
1331439809581,18.4788
1331439869581,18.4286
1331439929581,18.4734
1331439989581,18.5421
1331440049581,18.5713
1331440109581,18.6562
1331440169581,18.6204
1331440229581,18.5998
1331440289581,18.5712
1331440349581,18.5634
1331440409581,18.5527
1331440469581,18.5185
1331440529581,18.5268
1331440589581,18.5508
1331440649581,18.4565
1331440709581,18.5364
1331440769581,18.4992
1331440829581,18.4824
1331440889581,18.5508
1331440949581,18.5244
1331441009581,18.4797
1331441069581,18.4492
1331441129581,18.5003
1331441189581,18.5290
1331441249581,18.4606
1331441309581,18.5348
1331441369581,18.4969
1331441429581,18.5058
1331441489581,18.5286
1331441549581,18.4629
1331441609581,18.4657
1331441669581,18.4616
1331441729581,18.4857
1331441789581,18.4954
1331441849581,18.4839
1331441909581,18.5098
1331441969581,18.5599
1331442029594,18.5597
1331442089594,18.4458
1331442149594,18.4453
1331442209594,18.6285
1331442269594,18.5167
1331442329594,18.4302
1331442389594,18.5303
1331442449594,18.4314
1331442509594,18.4786
1331442569594,18.4699
1331442629594,18.5092
1331442689594,18.5060
1331442749594,18.4635
1331442809594,18.5398
1331442869594,18.4785
1331442929594,18.4456
1331442989594,18.4747
1331443049594,18.4946
1331443109594,18.5209
1331443169594,18.4934
1331443229594,18.5404
1331443289594,18.5070
1331443349594,18.5454
1331443409594,18.5479
1331443469594,18.5602
1331443529594,18.5886
1331443589594,18.6015
1331443649594,18.5189
1331443709594,18.5771
1331443769594,18.5500
1331443829594,18.5201
1331443889594,18.5647
1331443949594,18.5373
1331444009594,18.5456
1331444069594,18.4838
1331444129594,18.5046
1331444189594,18.4816
1331444249594,18.5376
1331444309594,18.6566
1331444369594,18.6042
1331444429594,18.5346
1331444489594,18.5673
1331444549594,18.5475
1331444609594,18.5494
1331444669594,18.5775
1331444729594,18.5978
1331444789594,18.5623
1331444849594,18.5637
1331444909594,18.5481
1331444969594,18.5890
1331445029594,18.5392
1331445089594,18.5662
1331445149594,18.5166
1331445209594,18.5486
1331445269594,18.5543
1331445329594,18.6012
1331445389594,18.5766
1331445449594,18.5641
1331445509594,18.5690
1331445569594,18.5560
1331445629607,18.5686
1331445689607,18.5122
1331445749607,18.5734
1331445809607,18.5602
1331445869607,18.5493
1331445929607,18.5590
1331445989607,18.6240
1331446049607,18.5766
1331446109607,18.6113
1331446169607,18.5818
1331446229607,18.6127
1331446289607,18.5072
1331446349607,18.5418
1331446409607,18.5676
1331446469607,18.5611
1331446529607,18.5195
1331446589607,18.5719
1331446649607,18.5238
1331446709607,18.5940
1331446769607,18.5573
1331446829607,18.5437
1331446889607,18.5141
1331446949607,18.5102
1331447009607,18.5527
1331447069607,18.5374
1331447129607,18.5687
1331447189607,18.5971
1331447249607,18.5238
1331447309607,18.5724
1331447369607,18.6038
1331447429607,18.5590
1331447489607,18.5410
1331447549607,18.5143
1331447609607,18.5186
1331447669607,18.3374
1331460269658,18.4777
1331460329658,18.4813
1331460389658,18.4670
1331460449658,18.3912
1331460509658,18.3691
1331460569658,18.4046
1331460629658,18.3667
1331460689658,18.3464
1331460749658,18.3696
1331460809658,18.3408
1331460869658,18.3472
1331460929658,18.3461
1331460989658,18.3965
1331461049658,18.3461
1331461109658,18.3439
1331461169658,18.2989
1331461229658,18.3261
1331461289658,18.3230
1331461349658,18.3630
1331461409658,18.2961
1331461469658,18.3541
1331461529658,18.2975
1331461589658,18.3278
1331461649658,18.3070
1331461709658,18.2982
1331461769658,18.2777
1331461829658,18.1399
1331461889658,18.2929
1331461949658,18.2689
1331462009658,18.3327
1331462069658,18.2901
1331462129658,18.2949
1331462189658,18.3140
1331462249658,18.3732
1331462309658,18.3073
1331462369658,18.3182
1331462429658,18.3263
1331462489658,18.4551
1331462549658,18.3684
1331462609658,18.3161
1331462669658,18.3729
1331462729658,18.4036
1331462789658,18.3443
1331462849658,18.3183
1331462909658,18.3055
1331462969658,18.3605
1331463029658,18.2763
1331463089658,18.3121
1331463149658,18.2541
1331463209658,18.2943
1331463269658,18.2896
1331463329658,18.2791
1331463389658,18.3201
1331463449658,18.2756
1331463509658,18.3161
1331463569658,18.3730
1331463629672,18.3343
1331463689672,18.3855
1331463749672,18.4409
1331463809672,18.4517
1331463869672,18.3950
1331463929672,18.3953
1331463989672,18.3867
1331464049672,18.4029
1331464109672,18.3925
1331464169672,18.4254
1331464229672,18.4355
1331464289672,18.3725
1331464349672,18.3433
1331464409672,18.3421
1331464469672,18.3476
1331464529672,18.3392
1331464589672,18.3062
1331464649672,18.2855
1331464709672,18.3261
1331464769672,18.2896
1331464829672,18.2870
1331464889672,18.3117
1331464949672,18.3359
1331465009672,18.3640
1331465069672,18.3509
1331465129672,18.3708
1331465189672,18.3650
1331465249672,18.3805
1331465309672,18.3291
1331465369672,18.4024
1331465429672,18.4062
1331465489672,18.3864
1331465549672,18.3777
1331465609672,18.3069
1331465669672,18.3769
1331465729672,18.2647
1331465789672,18.3388
1331465849672,18.3384
1331465909672,18.2542
1331465969672,18.2649
1331466029672,18.2501
1331466089672,18.2875
1331466149672,18.3199
1331466209672,18.2882
1331466269672,18.3178
1331466329672,18.3162
1331466389672,18.2688
1331466449672,18.3003
1331466509672,18.2984
1331466569672,18.2887
1331466629672,18.2931
1331466689672,18.2681
1331466749672,18.3162
1331466809672,18.2871
1331466869672,18.2346
1331466929672,18.2928
1331466989672,18.2993
1331467049672,18.2282
1331467109672,18.2714
1331467169672,18.1986
1331467229685,18.2058
1331467289685,18.2497
1331467349685,18.2450
1331467409685,18.2588
1331467469685,18.2323
1331467529685,18.2582
1331467589685,18.2397
1331467649685,18.2461
1331467709685,18.2719
1331467769685,18.2674
1331467829685,18.2347
1331467889685,18.2319
1331467949685,18.2861
1331468009685,18.2289
1331468069685,18.2329
1331468129685,18.2775
1331468189685,18.3036
1331468249685,18.2698
1331468309685,18.3424
1331468369685,18.2557
1331468429685,18.2179
1331468489685,18.2622
1331468549685,18.2648
1331468609685,18.3181
1331468669685,18.3191
1331468729685,18.3005
1331468789685,18.2557
1331468849685,18.2571
1331468909685,18.2678
1331468969685,18.2136
1331469029685,18.2585
1331469089685,18.2605
1331469149685,18.2344
1331469209685,18.3164
1331469269685,18.3358
1331469329685,18.2738
1331469389685,18.2975
1331469449685,18.2676
1331469509685,18.2482
1331469569685,18.2228
1331469629685,18.2573
1331469689685,18.2602
1331469749685,18.2990
1331469809685,18.2082
1331469869685,18.2591
1331469929685,18.3167
1331469989685,18.3166
1331470049685,18.3312
1331470109685,18.3503
1331470169685,18.2767
1331470229685,18.2199
1331470289685,18.2939
1331470349685,18.2815
1331470409685,18.3136
1331470469685,18.3876
1331470529685,18.3246
1331470589685,18.3723
1331470649685,18.3658
1331470709685,18.3821
1331470769685,18.3938
1331470829699,18.4072
1331470889699,18.4415
1331470949699,18.4247
1331471009699,18.4803
1331471069699,18.5125
1331471129699,18.4705
1331471189699,18.5438
1331471249699,18.5208
1331471309699,18.4910
1331471369699,18.4684
1331471429699,18.4021
1331471489699,18.3569
1331471549699,18.3711
1331471609699,18.3735
1331471669699,18.3438
1331471729699,18.3853
1331471789699,18.3532
1331471849699,18.3982
1331471909699,18.4156
1331471969699,18.4471
1331472029699,18.3951
1331472089699,18.4002
1331472149699,18.3316
1331472209699,18.4250
1331473349699,18.3893
1331473409699,18.4354
1331473469699,18.4516
1331473529699,18.4033
1331473589699,18.4208
1331473649699,18.4179
1331473709699,18.3879
1331473769699,18.3444
1331473829699,18.3948
1331473889699,18.4769
1331473949699,18.4438
1331474009699,18.3824
1331474069699,18.4507
1331474129699,18.4391
1331474189699,18.4542
1331474249699,18.4968
1331474309699,18.4559
1331474369699,18.4954
1331474429712,18.5335
1331474489712,18.5717
1331474549712,18.6094
1331474609712,18.5705
1331474669712,18.5252
1331474729712,18.4310
1331474789712,18.3916
1331474849712,18.4228
1331474909712,18.3541
1331474969712,18.3407
1331475029712,18.2988
1331475089712,18.2969
1331475149712,18.3422
1331475209712,18.3071
1331475269712,18.3442
1331475329712,18.3653
1331475389712,18.4310
1331475449712,18.4982
1331475509712,18.4532
1331475569712,18.4844
1331475629712,18.4691
1331475689712,18.3965
1331475749712,18.4241
1331475809712,18.3684
1331475869712,18.3241
1331475929712,18.3520
1331475989712,18.3383
1331476049712,18.3490
1331476109712,18.3472
1331476169712,18.3249
1331476229712,18.3241
1331476289712,18.3442
1331476349712,18.3456
1331476409712,18.3254
1331476469712,18.2728
1331476529712,18.2620
1331476589712,18.2876
1331476649712,18.3232
1331476709712,18.2828
1331476769712,18.2741
1331476829712,18.3246
1331476889712,18.2811
1331476949712,18.3253
1331477009712,18.3629
1331477069712,18.3541
1331477129712,18.3993
1331477189712,18.4580
1331477249712,18.4657
1331477309712,18.4113
1331477369712,18.4269
1331477429712,18.4318
1331477489712,18.4643
1331477549712,18.3517
1331477609712,18.3970
1331477669712,18.4112
1331477729712,18.4464
1331477789712,18.3763
1331477849712,18.3786
1331477909712,18.3926
1331477969712,18.3463
1331478029726,18.3371
1331478089726,18.3818
1331478149726,18.4205
1331478209726,18.4710
1331478269726,18.4295
1331478329726,18.4160
1331478389726,18.3782
1331478449726,18.4247
1331478509726,18.3852
1331478569726,18.3180
1331478629726,18.3369
1331478689726,18.3185
1331478749726,18.3062
1331478809726,18.3268
1331478869726,18.3174
1331478929726,18.3601
1331478989726,18.3145
1331479049726,18.3264
1331479109726,18.2859
1331479169726,18.3151
1331479229726,18.3461
1331479289726,18.3378
1331479349726,18.2890
1331479409726,18.2824
1331479469726,18.3488
1331479529726,18.3057
1331479589726,18.3363
1331479649726,18.3163
1331479709726,18.3389
1331479769726,18.3341
1331479829726,18.3278
1331479889726,18.3003
1331479949726,18.3432
1331480009726,18.2756
1331480069726,18.3007
1331480129726,18.3102
1331480189726,18.2696
1331480249726,18.2804
1331480309726,18.2751
1331480369726,18.2719
1331480429726,18.3478
1331480489726,18.2657
1331480549726,18.3030
1331480609726,18.2739
1331480669726,18.3544
1331480729726,18.2862
1331480789726,18.2338
1331480849726,18.2629
1331480909726,18.3251
1331480969726,18.2718
1331481029726,18.2750
1331481089726,18.2844
1331481149726,18.3052
1331481209726,18.2670
1331481269726,18.2837
1331481329726,18.3059
1331481389726,18.3578
1331481449726,18.2453
1331481509726,18.2859
1331481569726,18.2876
1331481629739,18.2765
1331481689739,18.2696
1331481749739,18.2623
1331481809739,18.2663
1331481869739,18.2840
1331481929739,18.2493
1331481989739,18.2630
1331482049739,18.2908
1331482109739,18.3153
1331482169739,18.2600
1331482229739,18.2525
1331482289739,18.2626
1331482349739,18.2512
1331482409739,18.2839
1331482469739,18.2975
1331482529739,18.3295
1331482589739,18.2803
1331482649739,18.3096
1331482709739,18.2848
1331482769739,18.2711
1331482829739,18.2318
1331482889739,18.3351
1331482949739,18.3186
1331483009739,18.2560
1331483069739,18.3448
1331483129739,18.3202
1331483189739,18.3268
1331483249739,18.3559
1331483309739,18.3328
1331483369739,18.3112
1331483429739,18.2952
1331483489739,18.3608
1331483549739,18.3440
1331483609739,18.3892
1331483669739,18.3516
1331483729739,18.3180
1331483789739,18.3297
1331483849739,18.3869
1331483909739,18.3713
1331483969739,18.3705
1331484029739,18.3706
1331484089739,18.3499
1331484149739,18.3339
1331484209739,18.3205
1331484269739,18.3175
1331484329739,18.3139
1331484389739,18.2220
1331484449739,18.3268
1331484509739,18.3550
1331484569739,18.3210
1331484629739,18.3346
1331484689739,18.3259
1331484749739,18.3349
1331484809739,18.3716
1331484869739,18.3429
1331484929739,18.3404
1331484989739,18.3077
1331485049739,18.3475
1331485109739,18.2963
1331485169739,18.2904
1331485229752,18.3168
1331485289752,18.3873
1331485349752,18.3164
1331485409752,18.3035
1331485469752,18.3054
1331485529752,18.3166
1331485589752,18.3066
1331485649752,18.3150
1331485709752,18.3133
1331485769752,18.3246
1331485829752,18.3617
1331485889752,18.2865
1331485949752,18.2962
1331486009752,18.3469
1331486069752,18.3427
1331486129752,18.3580
1331486189752,18.2891
1331486249752,18.2965
1331486309752,18.3834
1331486369752,18.3782
1331486429752,18.3402
1331486489752,18.3167
1331486549752,18.2889
1331486609752,18.2995
1331486669752,18.3199
1331486729752,18.2994
1331486789752,18.3024
1331486849752,18.3155
1331486909752,18.2821
1331486969752,18.3128
1331487029752,18.3239
1331487089752,18.3770
1331487149752,18.3594
1331487209752,18.4034
1331487269752,18.3421
1331487329752,18.3464
1331487389752,18.3320
1331487449752,18.3717
1331487509752,18.3672
1331487569752,18.3833
1331487629752,18.3802
1331487689752,18.3566
1331487749752,18.4020
1331487809752,18.3716
1331487869752,18.3383
1331487929752,18.4493
1331487989752,18.4468
1331488049752,18.4658
1331488109752,18.3994
1331488169752,18.3965
1331488229752,18.4387
1331488289752,18.4257
1331488349752,18.4882
1331488409752,18.4774
1331488469752,18.3857
1331488529752,18.3932
1331488589752,18.3710
1331488649752,18.4030
1331488709752,18.5148
1331488769752,18.5393
1331488829766,18.5057
1331488889766,18.4781
1331488949766,18.4791
1331489009766,18.4213
1331489069766,18.3775
1331489129766,18.3728
1331489189766,18.3379
1331489249766,18.3606
1331489309766,18.4355
1331489369766,18.4306
1331489429766,18.3944
1331489489766,18.4085
1331489549766,18.2954
1331489609766,18.3229
1331489669766,18.3444
1331489729766,18.3137
1331489789766,18.3820
1331489849766,18.3883
1331489909766,18.3931
1331489969766,18.3301
1331490029766,18.3419
1331490089766,18.3848
1331490149766,18.4083
1331490209766,18.4172
1331490269766,18.3503
1331490329766,18.4008
1331490389766,18.3691
1331490449766,18.3267
1331490509766,18.3656
1331490569766,18.3756
1331490629766,18.3484
1331490689766,18.3591
1331490749766,18.3892
1331490809766,18.4309
1331490869766,18.4179
1331490929766,18.3532
1331490989766,18.3405
1331491049766,18.3072
1331491109766,18.3483
1331491169766,18.3563
1331491229766,18.3806
1331491289766,18.3859
1331491349766,18.3505
1331491409766,18.3477
1331491469766,18.3777
1331491529766,18.3975
1331491589766,18.3603
1331491649766,18.4392
1331491709766,18.4027
1331491769766,18.3918
1331491829766,18.3630
1331491889766,18.4308
1331491949766,18.3941
1331492009766,18.4385
1331492069766,18.4526
1331492129766,18.4630
1331492189766,18.3913
1331492249766,18.4389
1331492309766,18.3548
1331492369766,18.4180
1331492429779,18.3957
1331492489779,18.4054
1331492549779,18.3558
1331492609779,18.3721
1331492669779,18.4037
1331492729779,18.4145
1331492789779,18.3330
1331492849779,18.3343
1331492909779,18.3582
1331492969779,18.4207
1331493029779,18.3613
1331493089779,18.3972
1331493149779,18.3357
1331493209779,18.3686
1331493269779,18.3778
1331493329779,18.3308
1331493389779,18.3891
1331493449779,18.3761
1331493509779,18.4388
1331493569779,18.4082
1331493629779,18.4716
1331493689779,18.4905
1331493749779,18.5431
1331493809779,18.4547
1331493869779,18.4321
1331493929779,18.4641
1331493989779,18.5031
1331494049779,18.4796
1331494109779,18.4181
1331494169779,18.4577
1331494229779,18.4371
1331494289779,18.3663
1331494349779,18.4551
1331494409779,18.4278
1331494469779,18.4190
1331494529779,18.4212
1331494589779,18.4284
1331494649779,18.4145
1331494709779,18.3889
1331494769779,18.4226
1331494829779,18.3910
1331494889779,18.3935
1331494949779,18.3749
1331495009779,18.4465
1331495069779,18.4305
1331495129779,18.4991
1331495189779,18.4681
1331495249779,18.4662
1331495309779,18.4348
1331495369779,18.5430
1331495429779,18.4885
1331495489779,18.4880
1331495549779,18.4884
1331495609779,18.4994
1331495669779,18.4992
1331495729779,18.5119
1331495789779,18.5031
1331495849779,18.5330
1331495909779,18.4927
1331495969779,18.5244
1331496029765,18.4804
1331496089765,18.4615
1331496149765,18.4083
1331496209765,18.4665
1331496269765,18.4210
1331496329765,18.4710
1331496389765,18.4659
1331496449765,18.5279
1331496509765,18.3970
1331496569765,18.3880
1331496629765,18.4900
1331496689765,18.4619
1331496749765,18.4346
1331496809765,18.4544
1331496869765,18.4571
1331496929765,18.4649
1331496989765,18.4250
1331497049765,18.4510
1331497109765,18.3839
1331497169765,18.4501
1331497229765,18.4244
1331497289765,18.4014
1331497349765,18.3543
1331497409765,18.3730
1331497469765,18.4235
1331497529765,18.3871
1331497589765,18.4320
1331497649765,18.3720
1331497709765,18.3187
1331497769765,18.3523
1331497829765,18.3488
1331497889765,18.3443
1331497949765,18.4018
1331498009765,18.4036
1331498069765,18.4055
1331498129765,18.3568
1331498189765,18.3907
1331498249765,18.3427
1331498309765,18.4048
1331498369765,18.3475
1331498429765,18.3674
1331498489765,18.3210
1331498549765,18.3736
1331498609765,18.4187
1331498669765,18.4138
1331498729765,18.3981
1331498789765,18.3971
1331498849765,18.3780
1331498909765,18.3697
1331498969765,18.3788
1331499029765,18.3801
1331499089765,18.3519
1331499149765,18.2925
1331499209765,18.2748
1331499269765,18.3770
1331499329765,18.3254
1331499389765,18.3804
1331499449765,18.3955
1331499509765,18.3915
1331499569765,18.3843
1331499629777,18.3861
1331499689777,18.3311
1331499749777,18.3755
1331499809777,18.4348
1331499869777,18.3169
1331499929777,18.3557
1331499989777,18.3815
1331500049777,18.3392
1331500109777,18.3530
1331500169777,18.3738
1331500229777,18.3015
1331500289777,18.3273
1331500349777,18.3040
1331500409777,18.3126
1331500469777,18.3714
1331500529777,18.3189
1331500589777,18.3304
1331500649777,18.3297
1331500709777,18.2402
1331500769777,18.2850
1331500829777,18.2842
1331500889777,18.3162
1331500949777,18.4197
1331501009777,18.3564
1331501069777,18.4002
1331501129777,18.4215
1331501189777,18.4142
1331501249777,18.3458
1331501309777,18.3803
1331501369777,18.4167
1331501429777,18.3194
1331501489777,18.2774
1331501549777,18.3764
1331501609777,18.3246
1331501669777,18.3920
1331501729777,18.4175
1331501789777,18.4833
1331501849777,18.4140
1331501909777,18.4061
1331501969777,18.3818
1331502029777,18.3957
1331502089777,18.3514
1331502149777,18.4054
1331502209777,18.3856
1331502269777,18.4118
1331502329777,18.3528
1331502389777,18.3681
1331502449777,18.2955
1331502509777,18.3195
1331502569777,18.3157
1331502629777,18.3548
1331502689777,18.3153
1331502749777,18.2916
1331502809777,18.2952
1331502869777,18.3365
1331502929777,18.3099
1331502989777,18.3128